Location: Unspecified
(43.4354°N, 0.0000°E)
Time: 03:44:04
(UTC+00:00)

Transit 2A - Pass Details

Date: 23 June 2019
Orbit: 594 x 965 km, 66.7° (Epoch: 17 July)

Event Time Altitude Azimuth Distance (km) Brightness Sun altitude
Rises 10:19:18 0° 314° (NW) 3,368 9.0 60.9°
Reaches altitude 10° 10:22:42 10° 294° (WNW) 2,350 8.4 61.4°
Maximum altitude 10:25:55 16° 257° (WSW) 1,867 8.0 61.9°
Drops below altitude 10° 10:28:58 10° 219° (SW) 2,189 8.5 62.3°
Sets 10:31:59 0° 198° (SSW) 3,030 9.2 62.7°
